User: anonymous   Login
Location: Unspecified
(0.0000°N, 0.0000°E)
Time: 03:22:20
(UTC+00:00)
Language:

STARLINK-33791 - Orbit

View from above orbital plane
View from above orbital plane
View from above satellite
View from above satellite

Ground track
Ground track

The orbit is defined by the following mean orbital elements,

1 63594U          26145.55502583 +.00000000 +00000-0 +90615-3 0 00005
2 63594  43.0016 247.7956 0000964 255.7251 104.3494 15.27596957    00
Epoch (UTC): 25 May 2026 13:19:14
Eccentricity: 0.0000964
inclination: 43.0016°
perigee height: 482 km
apogee height: 484 km
right ascension of ascending node: 247.7956°
argument of perigee: 255.7251°
revolutions per day: 15.27596957
mean anomaly at epoch: 104.3494°

The dashed part of the orbit path shows where the satellite is in the earth's shadow,  

DLR